Scottsbluff, NE

1:44 AM MST on November 12, 2019 (GMT -0700)
Heilig

Weather History for KBFF - July, 2019

Change the Weather History Date:

Wednesday, July 31, 2019

  Actual Average Record
Temperature  
Mean Temperature 76 °F -  
Max Temperature 91 °F 87 °F 105 °F (2002)
Min Temperature 64 °F 58 °F 39 °F (1915)
Cooling Degree Days 11    
Growing Degree Days 26 (Base 50)    
Moisture  
Dew Point 63 °F    
Average Humidity 66    
Maximum Humidity 93    
Minimum Humidity 39    
Precipitation  
Precipitation 0.00 in - - ()
Sea Level Pressure  
Sea Level Pressure 29.95 in    
Wind  
Wind Speed 8 mph (East)    
Max Wind Speed 17 mph    
Max Gust Speed 24 mph    
Visibility 10 miles    
Events      
Averages and records for this station are not official NWS values.
T = Trace of Precipitation, MM = Missing Value Source: NWS Daily Summary

Daily Weather History Graph

Daily Weather History Graph

Search for Another Location

Airport or City:

Astronomy

Jul. 31, 2019 Rise Set
Actual Time 5:47 AM MDT 8:13 PM MDT
Civil Twilight 5:15 AM MDT 8:45 PM MDT
Nautical Twilight 4:36 AM MDT 9:24 PM MDT
Astronomical Twilight 3:52 AM MDT 10:08 PM MDT
Moon 5:01 AM MDT (7/31) 8:15 PM MDT (7/31)
Length of Visible Light 15h 29m
Length of Day
14h 26m
Waning Crescent, 0% of the Moon is Illuminated
Jul 31
Waning Crescent
Jul 31
New
Aug 7
First Quarter
Aug 15
Full
Aug 23
Last Quarter

Hourly Weather History & Observations

Time (MDT) Temp. Heat Index Dew Point Humidity Pressure Visibility Wind Dir Wind Speed Gust Speed Precip Events Conditions
12:53 AM 71.1 °F - 64.0 °F 78% 29.81 in 10.0 mi ESE 17.3 mph 24.2 mph N/A   Clear
1:53 AM 68.0 °F - 63.0 °F 84% 29.79 in 10.0 mi ESE 10.4 mph - N/A   Clear
2:53 AM 64.9 °F - 62.1 °F 90% 29.81 in 10.0 mi ENE 3.5 mph - N/A   Clear
3:53 AM 63.0 °F - 61.0 °F 93% 29.83 in 10.0 mi NNE 3.5 mph - N/A   Clear
4:53 AM 66.9 °F - 62.1 °F 84% 29.89 in 10.0 mi NNE 15.0 mph - N/A   Clear
5:53 AM 66.0 °F - 62.1 °F 87% 29.93 in 10.0 mi NNE 6.9 mph 17.3 mph N/A   Clear
6:53 AM 66.0 °F - 62.1 °F 87% 29.96 in 10.0 mi ENE 12.7 mph - N/A   Partly Cloudy
7:23 AM 66.9 °F - 63.0 °F 87% 30.12 in 10.0 mi NE 9.2 mph 16.1 mph N/A   Mostly Cloudy
7:53 AM 70.0 °F - 63.0 °F 78% 29.98 in 10.0 mi ENE 12.7 mph - N/A   Mostly Cloudy
8:04 AM 70.0 °F - 63.0 °F 78% 30.12 in 10.0 mi East 9.2 mph - N/A   Scattered Clouds
8:53 AM 73.9 °F - 63.0 °F 68% 29.99 in 10.0 mi Variable 3.5 mph - N/A   Partly Cloudy
9:53 AM 75.0 °F - 63.0 °F 66% 29.99 in 10.0 mi SW 4.6 mph - N/A   Clear
10:53 AM 80.1 °F 81.5 °F 63.0 °F 56% 29.99 in 10.0 mi Calm Calm - N/A   Clear
11:53 AM 82.0 °F 83.1 °F 63.0 °F 52% 29.98 in 10.0 mi Calm Calm - N/A   Clear
12:53 PM 82.0 °F 82.7 °F 61.0 °F 49% 29.98 in 10.0 mi Variable 4.6 mph - N/A   Clear
1:53 PM 84.9 °F 85.4 °F 62.1 °F 46% 29.96 in 10.0 mi ENE 4.6 mph - N/A   Clear
2:53 PM 89.1 °F 89.3 °F 62.1 °F 40% 29.94 in 10.0 mi East 10.4 mph - N/A   Clear
3:53 PM 90.0 °F 90.3 °F 62.1 °F 39% 29.93 in 10.0 mi SE 5.8 mph - N/A   Clear
4:53 PM 91.0 °F 91.9 °F 63.0 °F 39% 29.92 in 10.0 mi ESE 10.4 mph - N/A   Clear
5:53 PM 87.1 °F 87.8 °F 63.0 °F 44% 29.92 in 10.0 mi SSE 3.5 mph - N/A   Clear
6:53 PM 88.0 °F 89.3 °F 64.0 °F 45% 29.93 in 10.0 mi Calm Calm - N/A   Clear
7:53 PM 82.9 °F 85.0 °F 66.0 °F 56% 29.93 in 10.0 mi Calm Calm - N/A   Clear
8:53 PM 78.1 °F - 68.0 °F 71% 29.96 in 10.0 mi NE 5.8 mph - N/A   Clear
9:53 PM 78.1 °F - 63.0 °F 60% 29.98 in 10.0 mi East 8.1 mph - N/A   Clear
10:53 PM 75.0 °F - 66.0 °F 73% 29.98 in 10.0 mi ESE 8.1 mph - N/A   Clear
11:53 PM 73.9 °F - 66.9 °F 79% 30.01 in 10.0 mi East 8.1 mph - N/A   Clear